Tiempo cada hora a/p Chisinau International Airport

Hoy, 23 Octubre, Viernes

Tiempo Temperatura Precipitaciones Viento Presión Humedad
00:00 +15°C° 0 mm 1 mps 761 mmHg 41%
01:00 +14°C° 0 mm 1 mps 761 mmHg 42%
02:00 +13°C° 0 mm 0 mps 761 mmHg 42%
03:00 +12°C° 0 mm 0 mps 760 mmHg 45%
04:00 +13°C° 0 mm 1 mps 760 mmHg 47%
05:00 +12°C° 0 mm 1 mps 760 mmHg 50%
06:00 +13°C° 0 mm 1 mps 760 mmHg 51%
07:00 +13°C° 0 mm 1 mps 760 mmHg 53%
08:00 +13°C° 0 mm 1 mps 760 mmHg 55%
09:00 +15°C° 0 mm 1 mps 760 mmHg 49%
10:00 +17°C° 0 mm 2 mps 759 mmHg 44%
11:00 +19°C° 0 mm 2 mps 759 mmHg 38%
12:00 +20°C° 0 mm 2 mps 759 mmHg 35%
13:00 +21°C° 0 mm 3 mps 758 mmHg 33%
14:00 +22°C° 0 mm 3 mps 758 mmHg 30%
15:00 +16°C° 0 mm 1 mps 757 mmHg 47%
16:00 +18°C° 0 mm 1 mps 757 mmHg 44%
17:00 +18°C° 0 mm 2 mps 757 mmHg 41%
18:00 +18°C° 0 mm 2 mps 757 mmHg 43%
19:00 +18°C° 0 mm 1 mps 757 mmHg 46%
20:00 +16°C° 0 mm 1 mps 757 mmHg 48%
21:00 +16°C° 0 mm 1 mps 757 mmHg 49%
22:00 +15°C° 0 mm 1 mps 757 mmHg 51%
23:00 +15°C° 0 mm 1 mps 757 mmHg 52%

Mañana, 24 Octubre, Sábado

Tiempo Temperatura Precipitaciones Viento Presión Humedad
00:00 +15°C° 0 mm 1 mps 757 mmHg 53%
01:00 +14°C° 0 mm 1 mps 757 mmHg 55%
02:00 +13°C° 0 mm 0 mps 757 mmHg 56%
03:00 +13°C° 0 mm 0 mps 757 mmHg 57%
04:00 +12°C° 0 mm 0 mps 756 mmHg 58%
05:00 +12°C° 0 mm 0 mps 756 mmHg 58%
06:00 +13°C° 0 mm 0 mps 756 mmHg 57%
07:00 +13°C° 0 mm 0 mps 756 mmHg 56%
08:00 +14°C° 0 mm 0 mps 757 mmHg 54%
09:00 +15°C° 0 mm 0 mps 756 mmHg 50%
10:00 +17°C° 0 mm 0 mps 756 mmHg 45%
11:00 +18°C° 0 mm 0 mps 756 mmHg 40%
12:00 +21°C° 0 mm 1 mps 756 mmHg 39%
13:00 +21°C° 0 mm 1 mps 756 mmHg 38%
14:00 +22°C° 0 mm 1 mps 756 mmHg 36%
15:00 +21°C° 0 mm 1 mps 756 mmHg 40%
16:00 +20°C° 0 mm 1 mps 756 mmHg 43%
17:00 +19°C° 0 mm 1 mps 756 mmHg 46%
18:00 +19°C° 0 mm 1 mps 757 mmHg 47%
19:00 +18°C° 0 mm 1 mps 757 mmHg 49%
20:00 +17°C° 0 mm 2 mps 757 mmHg 51%
21:00 +16°C° 0 mm 2 mps 758 mmHg 56%
22:00 +16°C° 0 mm 2 mps 758 mmHg 61%
23:00 +16°C° 0 mm 2 mps 759 mmHg 65%

Pasado mañana, 25 Octubre, Domingo

Tiempo Temperatura Precipitaciones Viento Presión Humedad
00:00 +15°C° 0 mm 2 mps 759 mmHg 69%
01:00 +15°C° 0 mm 2 mps 759 mmHg 72%
02:00 +14°C° 0 mm 2 mps 759 mmHg 76%
03:00 +14°C° 0 mm 2 mps 760 mmHg 79%
04:00 +14°C° 0 mm 2 mps 760 mmHg 81%
05:00 +13°C° 0 mm 3 mps 760 mmHg 84%
06:00 +14°C° 0 mm 2 mps 760 mmHg 85%
07:00 +14°C° 0 mm 2 mps 761 mmHg 85%
08:00 +14°C° 0 mm 2 mps 761 mmHg 85%
09:00 +15°C° 0 mm 2 mps 761 mmHg 79%
10:00 +16°C° 0 mm 2 mps 761 mmHg 73%
11:00 +17°C° 0 mm 2 mps 761 mmHg 67%
12:00 +18°C° 0 mm 2 mps 761 mmHg 64%
13:00 +18°C° 0 mm 2 mps 761 mmHg 62%
14:00 +18°C° 0 mm 2 mps 761 mmHg 60%
15:00 +18°C° 0 mm 2 mps 761 mmHg 62%
16:00 +17°C° 0 mm 2 mps 761 mmHg 64%
17:00 +18°C° 0 mm 1 mps 760 mmHg 65%
18:00 +16°C° 0 mm 1 mps 761 mmHg 66%
19:00 +16°C° 0 mm 1 mps 761 mmHg 67%
20:00 +15°C° 0 mm 2 mps 761 mmHg 69%
21:00 +15°C° 0 mm 2 mps 761 mmHg 69%
22:00 +15°C° 0 mm 2 mps 761 mmHg 70%
23:00 +14°C° 0 mm 2 mps 761 mmHg 71%

, 26 Octubre, Lunes

Tiempo Temperatura Precipitaciones Viento Presión Humedad
00:00 +14°C° 0 mm 2 mps 761 mmHg 73%
01:00 +14°C° 0 mm 2 mps 761 mmHg 76%
02:00 +13°C° 0 mm 2 mps 761 mmHg 79%
03:00 +13°C° 0 mm 2 mps 760 mmHg 81%
04:00 +13°C° 0 mm 2 mps 760 mmHg 83%
05:00 +13°C° 0 mm 2 mps 760 mmHg 86%
06:00 +13°C° 0 mm 2 mps 760 mmHg 84%
07:00 +12°C° 0 mm 3 mps 760 mmHg 83%
08:00 +12°C° 0 mm 3 mps 760 mmHg 82%
09:00 +14°C° 0 mm 4 mps 760 mmHg 77%
10:00 +15°C° 0 mm 4 mps 760 mmHg 71%
11:00 +16°C° 0 mm 5 mps 760 mmHg 66%
12:00 +17°C° 0 mm 5 mps 759 mmHg 63%
13:00 +19°C° 0 mm 5 mps 759 mmHg 61%
14:00 +20°C° 0 mm 5 mps 759 mmHg 58%
15:00 +19°C° 0 mm 5 mps 758 mmHg 62%
16:00 +18°C° 0 mm 4 mps 758 mmHg 65%
17:00 +18°C° 0 mm 4 mps 757 mmHg 69%
18:00 +18°C° 0 mm 4 mps 757 mmHg 70%
19:00 +16°C° 0 mm 5 mps 757 mmHg 71%
20:00 +16°C° 0 mm 5 mps 757 mmHg 72%
21:00 +16°C° 0 mm 5 mps 757 mmHg 76%
22:00 +15°C° 0 mm 5 mps 758 mmHg 79%
23:00 +15°C° 0 mm 5 mps 758 mmHg 82%

26 Octubre, Lunes

Tiempo Temperatura Precipitaciones Viento Presión Humedad
00:00 +14°C° 0 mm 2 mps 761 mmHg 73%
01:00 +14°C° 0 mm 2 mps 761 mmHg 76%
02:00 +13°C° 0 mm 2 mps 761 mmHg 79%
03:00 +13°C° 0 mm 2 mps 760 mmHg 81%
04:00 +13°C° 0 mm 2 mps 760 mmHg 83%
05:00 +13°C° 0 mm 2 mps 760 mmHg 86%
06:00 +13°C° 0 mm 2 mps 760 mmHg 84%
07:00 +12°C° 0 mm 3 mps 760 mmHg 83%
08:00 +12°C° 0 mm 3 mps 760 mmHg 82%
09:00 +14°C° 0 mm 4 mps 760 mmHg 77%
10:00 +15°C° 0 mm 4 mps 760 mmHg 71%
11:00 +16°C° 0 mm 5 mps 760 mmHg 66%
12:00 +17°C° 0 mm 5 mps 759 mmHg 63%
13:00 +19°C° 0 mm 5 mps 759 mmHg 61%
14:00 +20°C° 0 mm 5 mps 759 mmHg 58%
15:00 +19°C° 0 mm 5 mps 758 mmHg 62%
16:00 +18°C° 0 mm 4 mps 758 mmHg 65%
17:00 +18°C° 0 mm 4 mps 757 mmHg 69%
18:00 +18°C° 0 mm 4 mps 757 mmHg 70%
19:00 +16°C° 0 mm 5 mps 757 mmHg 71%
20:00 +16°C° 0 mm 5 mps 757 mmHg 72%
21:00 +16°C° 0 mm 5 mps 757 mmHg 76%
22:00 +15°C° 0 mm 5 mps 758 mmHg 79%
23:00 +15°C° 0 mm 5 mps 758 mmHg 82%

27 Octubre, Martes

Tiempo Temperatura Precipitaciones Viento Presión Humedad
00:00 +15°C° 0 mm 4 mps 757 mmHg 84%
01:00 +15°C° 0 mm 4 mps 757 mmHg 86%
02:00 +15°C° 0 mm 4 mps 757 mmHg 88%
03:00 +15°C° 0 mm 4 mps 757 mmHg 88%
04:00 +15°C° 0 mm 4 mps 757 mmHg 87%
05:00 +15°C° 0 mm 4 mps 758 mmHg 86%
06:00 +15°C° 0 mm 4 mps 758 mmHg 86%
07:00 +15°C° 0 mm 4 mps 758 mmHg 85%
08:00 +17°C° 0 mm 4 mps 758 mmHg 84%
09:00 +18°C° 0 mm 4 mps 758 mmHg 79%
10:00 +19°C° 0 mm 4 mps 758 mmHg 75%
11:00 +20°C° 0 mm 4 mps 758 mmHg 70%
12:00 +21°C° 0 mm 3 mps 758 mmHg 65%
13:00 +22°C° 0 mm 3 mps 758 mmHg 61%
14:00 +24°C° 0 mm 3 mps 758 mmHg 56%
15:00 +22°C° 0 mm 3 mps 758 mmHg 60%
16:00 +21°C° 0 mm 3 mps 758 mmHg 63%
17:00 +20°C° 0 mm 3 mps 758 mmHg 67%
18:00 +19°C° 0.1 mm 3 mps 758 mmHg 69%
19:00 +18°C° 0.1 mm 3 mps 758 mmHg 72%
20:00 +17°C° 0.1 mm 3 mps 758 mmHg 75%
21:00 +16°C° 0 mm 2 mps 758 mmHg 77%
22:00 +16°C° 0 mm 2 mps 758 mmHg 80%
23:00 +15°C° 0 mm 2 mps 758 mmHg 82%

28 Octubre, Miércoles

Tiempo Temperatura Precipitaciones Viento Presión Humedad
00:00 +15°C° 0 mm 2 mps 758 mmHg 85%
01:00 +15°C° 0 mm 2 mps 758 mmHg 88%
02:00 +14°C° 0 mm 2 mps 758 mmHg 91%
03:00 +14°C° 0 mm 2 mps 758 mmHg 91%
04:00 +15°C° 0 mm 2 mps 758 mmHg 91%
05:00 +15°C° 0 mm 2 mps 758 mmHg 91%
06:00 +15°C° 0 mm 2 mps 758 mmHg 89%
07:00 +15°C° 0 mm 2 mps 758 mmHg 87%
08:00 +14°C° 0 mm 3 mps 758 mmHg 85%
09:00 +16°C° 0 mm 3 mps 758 mmHg 81%
10:00 +17°C° 0 mm 3 mps 758 mmHg 76%
11:00 +18°C° 0 mm 3 mps 758 mmHg 72%
12:00 +19°C° 0 mm 3 mps 758 mmHg 73%
13:00 +19°C° 0 mm 3 mps 758 mmHg 74%
14:00 +20°C° 0 mm 3 mps 758 mmHg 75%
15:00 +19°C° 0 mm 3 mps 758 mmHg 75%
16:00 +19°C° 0 mm 3 mps 758 mmHg 74%
17:00 +18°C° 0 mm 3 mps 758 mmHg 73%
18:00 +18°C° 0 mm 3 mps 758 mmHg 75%
19:00 +17°C° 0 mm 2 mps 758 mmHg 77%
20:00 +16°C° 0 mm 2 mps 758 mmHg 78%
21:00 +15°C° 0 mm 2 mps 758 mmHg 79%
22:00 +15°C° 0 mm 2 mps 758 mmHg 80%
23:00 +14°C° 0 mm 2 mps 758 mmHg 81%
Mostrar más

Necesitamos Su Consentimiento

Meteoprog y nuestros Proveedores de Servicios pueden almacenar y acceder a sus datos personales como cookies, identificadores de dispositivo u otras tecnologías similares de su dispositivo y procesar dichos datos para personalizar contenido y anuncios, además de ofrecer funciones de redes sociales y analizar el tráfico.

  • Almacenar y/o acceder a información en su dispositivo

    Se puede almacenar o acceder a cookies, identificadores de dispositivo u otra información de su dispositivo para los fines anteriormente indicados.

  • Anuncios y contenido personalizados, medición de anuncios y contenido, percepciones del público, y desarrollo de productos

    Los anuncios y el contenido pueden personalizarse en base a su perfil. Se pueden añadir más datos para personalizar mejor los anuncios y contenidos. Se puede medir el rendimiento de los anuncios y contenidos. Se puede obtener la percepción sobre el público que ha visto los anuncios y contenidos. Dichos datos pueden usarse para desarrollar o mejorar la experiencia del usuario, sistemas y software.

Al hacer clic en ‘Estoy De Acuerdo’ usted permitirá el uso de las cookies, identificadores de dispositivo, balizas web u otras tecnologías similares indicadas. Su configuración puede cambiarse desde el navegador de su dispositivo.

Para ciertos fines, los intereses legítimos pueden ser considerados por encima del consentimiento. Puede leer más sobre ello en nuestra Política de Privacidad y Cookies.